"Sample Date","Sample Time","Sample Value","Units","Flow Rate","Sample Interval","Number Channels","Micron Size 0","Counts/Channel 0","Micron Size 1","Counts/Channel 1","Micron Size 2","Counts/Channel 2","Micron Size 3","Counts/Channel 3","Micron Size 4","Counts/Channel 4","Micron Size 5","Counts/Channel 5","Micron Size 6","Counts/Channel 6","Micron Size 7","Counts/Channel 7","Micron Size 8","Counts/Channel 8","Micron Size 9","Counts/Channel 9","Micron Size 10","Counts/Channel 10","Micron Size 11","Counts/Channel 11","Micron Size 12","Counts/Channel 12","Micron Size 13","Counts/Channel 13","Micron Size 14","Counts/Channel 14","Micron Size 15","Counts/Channel 15","Micron Size 16","Counts/Channel 16","Micron Size 17","Counts/Channel 17","Micron Size 18","Counts/Channel 18","Micron Size 19","Counts/Channel 19","Micron Size 20","Counts/Channel 20","Micron Size 21","Counts/Channel 21","Micron Size 22","Counts/Channel 22","Micron Size 23","Counts/Channel 23","Micron Size 24","Counts/Channel 24","Micron Size 25","Counts/Channel 25","Micron Size 26","Counts/Channel 26","Micron Size 27","Counts/Channel 27","Micron Size 28","Counts/Channel 28","Micron Size 29","Counts/Channel 29","Micron Size 30","Counts/Channel 30","Micron Size 31","Counts/Channel 31"
"03/11/08","08:00:00",31861.000,"cc",28352.582,6.00,6,0.100,22248.000,0.200,3784.000,0.300,2272.000,0.500,2620.000,1.000,937.000,5.000,0
"03/11/08","08:00:06",31873.000,"cc",28281.752,6.00,6,0.100,22392.000,0.200,3740.000,0.300,2183.000,0.500,2581.000,1.000,977.000,5.000,0
"03/11/08","08:00:12",31921.000,"cc",28371.006,6.00,6,0.100,22196.000,0.200,3761.000,0.300,2282.000,0.500,2780.000,1.000,902.000,5.000,0
"03/11/08","08:00:18",31472.000,"cc",28366.313,6.00,6,0.100,22071.000,0.200,3731.000,0.300,2159.000,0.500,2612.000,1.000,899.000,5.000,0
"03/11/08","08:00:24",31944.000,"cc",28260.203,6.00,6,0.100,22590.000,0.200,3761.000,0.300,2138.000,0.500,2509.000,1.000,946.000,5.000,0
"03/11/08","08:00:30",31731.000,"cc",28325.795,6.00,6,0.100,22447.000,0.200,3811.000,0.300,2096.000,0.500,2477.000,1.000,900.000,5.000,0
"03/11/08","08:00:36",31566.000,"cc",28312.012,6.00,6,0.100,22109.000,0.200,3650.000,0.300,2175.000,0.500,2685.000,1.000,947.000,5.000,0
"03/11/08","08:00:42",31716.000,"cc",28380.926,6.00,6,0.100,22352.000,0.200,3740.000,0.300,2158.000,0.500,2557.000,1.000,909.000,5.000,0
"03/11/08","08:00:48",31738.000,"cc",28275.020,6.00,6,0.100,22300.000,0.200,3753.000,0.300,2120.000,0.500,2586.000,1.000,979.000,5.000,0
"03/11/08","08:00:54",31802.000,"cc",28294.922,6.00,6,0.100,22275.000,0.200,3802.000,0.300,2216.000,0.500,2552.000,1.000,957.000,5.000,0
"03/11/08","08:01:00",31538.000,"cc",28328.525,6.00,6,0.100,22184.000,0.200,3725.000,0.300,2123.000,0.500,2605.000,1.000,901.000,5.000,0
"03/11/08","08:01:06",31649.000,"cc",28247.797,6.00,6,0.100,22200.000,0.200,3811.000,0.300,2172.000,0.500,2531.000,1.000,935.000,5.000,0
"03/11/08","08:01:12",32001.000,"cc",28219.893,6.00,6,0.100,22550.000,0.200,3708.000,0.300,2216.000,0.500,2603.000,1.000,924.000,5.000,0
"03/11/08","08:01:18",31770.000,"cc",28332.943,6.00,6,0.100,22175.000,0.200,3826.000,0.300,2221.000,0.500,2642.000,1.000,906.000,5.000,0
"03/11/08","08:01:24",32060.000,"cc",28315.184,6.00,6,0.100,22415.000,0.200,3831.000,0.300,2229.000,0.500,2642.000,1.000,943.000,5.000,0
"03/11/08","08:01:30",31808.000,"cc",28370.928,6.00,6,0.100,22130.000,0.200,3764.000,0.300,2256.000,0.500,2670.000,1.000,988.000,5.000,0
"03/11/08","08:01:36",31904.000,"cc",28227.703,6.00,6,0.100,22316.000,0.200,3770.000,0.300,2241.000,0.500,2661.000,1.000,916.000,5.000,0
"03/11/08","08:01:42",32016.000,"cc",28291.195,6.00,6,0.100,22323.000,0.200,3803.000,0.300,2240.000,0.500,2703.000,1.000,947.000,5.000,0
"03/11/08","08:01:48",31950.000,"cc",28281.859,6.00,6,0.100,22492.000,0.200,3783.000,0.300,2156.000,0.500,2600.000,1.000,919.000,5.000,0
"03/11/08","08:01:54",31878.000,"cc",28345.164,6.00,6,0.100,22237.000,0.200,3709.000,0.300,2260.000,0.500,2702.000,1.000,970.000,5.000,0
"03/11/08","08:02:00",31779.000,"cc",28309.586,6.00,6,0.100,22271.000,0.200,3798.000,0.300,2196.000,0.500,2525.000,1.000,989.000,5.000,0
"03/11/08","08:02:06",31761.000,"cc",28307.928,6.00,6,0.100,22143.000,0.200,3809.000,0.300,2197.000,0.500,2670.000,1.000,942.000,5.000,0
"03/11/08","08:02:12",31949.000,"cc",28353.609,6.00,6,0.100,22257.000,0.200,3876.000,0.300,2207.000,0.500,2689.000,1.000,920.000,5.000,0
"03/11/08","08:02:18",31587.000,"cc",28344.447,6.00,6,0.100,22119.000,0.200,3799.000,0.300,2238.000,0.500,2511.000,1.000,920.000,5.000,0
"03/11/08","08:02:24",31847.000,"cc",28256.859,6.00,6,0.100,22158.000,0.200,3838.000,0.300,2215.000,0.500,2614.000,1.000,1022.000,5.000,0
"03/11/08","08:02:30",32303.000,"cc",28305.195,6.00,6,0.100,22434.000,0.200,3847.000,0.300,2307.000,0.500,2776.000,1.000,939.000,5.000,0
"03/11/08","08:02:36",32312.000,"cc",28344.154,6.00,6,0.100,22446.000,0.200,3782.000,0.300,2322.000,0.500,2827.000,1.000,935.000,5.000,0
"03/11/08","08:02:42",31674.000,"cc",28315.906,6.00,6,0.100,22163.000,0.200,3802.000,0.300,2197.000,0.500,2576.000,1.000,936.000,5.000,0
"03/11/08","08:02:48",31644.000,"cc",28369.340,6.00,6,0.100,22106.000,0.200,3801.000,0.300,2198.000,0.500,2627.000,1.000,912.000,5.000,0
"03/11/08","08:02:54",31526.000,"cc",28258.055,6.00,6,0.100,22141.000,0.200,3731.000,0.300,2192.000,0.500,2507.000,1.000,954.000,5.000,1.000
"03/11/08","08:03:00",31907.000,"cc",28309.254,6.00,6,0.100,22178.000,0.200,3856.000,0.300,2220.000,0.500,2648.000,1.000,1005.000,5.000,0
"03/11/08","08:03:06",31971.000,"cc",28267.152,6.00,6,0.100,22438.000,0.200,3736.000,0.300,2254.000,0.500,2609.000,1.000,934.000,5.000,0
"03/11/08","08:03:12",31380.000,"cc",28394.697,6.00,6,0.100,21844.000,0.200,3762.000,0.300,2179.000,0.500,2672.000,1.000,923.000,5.000,0
"03/11/08","08:03:18",31385.000,"cc",28327.232,6.00,6,0.100,21936.000,0.200,3626.000,0.300,2243.000,0.500,2656.000,1.000,924.000,5.000,0
"03/11/08","08:03:24",31761.000,"cc",28298.949,6.00,6,0.100,22009.000,0.200,3840.000,0.300,2321.000,0.500,2628.000,1.000,963.000,5.000,0
"03/11/08","08:03:30",32019.000,"cc",28316.617,6.00,6,0.100,22416.000,0.200,3839.000,0.300,2251.000,0.500,2602.000,1.000,911.000,5.000,0
"03/11/08","08:03:36",31120.000,"cc",28287.813,6.00,6,0.100,21806.000,0.200,3617.000,0.300,2156.000,0.500,2562.000,1.000,979.000,5.000,0
"03/11/08","08:03:42",31785.000,"cc",28306.891,6.00,6,0.100,22242.000,0.200,3790.000,0.300,2138.000,0.500,2639.000,1.000,976.000,5.000,0
"03/11/08","08:03:48",31540.000,"cc",28315.164,6.00,6,0.100,22212.000,0.200,3679.000,0.300,2137.000,0.500,2558.000,1.000,954.000,5.000,0
"03/11/08","08:03:54",31434.000,"cc",28320.609,6.00,6,0.100,22019.000,0.200,3666.000,0.300,2204.000,0.500,2600.000,1.000,945.000,5.000,0
"03/11/08","08:04:00",31178.000,"cc",28351.158,6.00,6,0.100,21986.000,0.200,3656.000,0.300,2146.000,0.500,2497.000,1.000,893.000,5.000,0
"03/11/08","08:04:06",31470.000,"cc",28292.061,6.00,6,0.100,22068.000,0.200,3782.000,0.300,2093.000,0.500,2615.000,1.000,912.000,5.000,0
"03/11/08","08:04:12",31414.000,"cc",28390.338,6.00,6,0.100,22189.000,0.200,3513.000,0.300,2193.000,0.500,2559.000,1.000,960.000,5.000,0
"03/11/08","08:04:18",31561.000,"cc",28359.148,6.00,6,0.100,22053.000,0.200,3763.000,0.300,2179.000,0.500,2627.000,1.000,939.000,5.000,0
"03/11/08","08:04:24",31540.000,"cc",28262.182,6.00,6,0.100,22019.000,0.200,3731.000,0.300,2191.000,0.500,2650.000,1.000,949.000,5.000,0
"03/11/08","08:04:30",31456.000,"cc",28295.537,6.00,6,0.100,22006.000,0.200,3712.000,0.300,2158.000,0.500,2665.000,1.000,915.000,5.000,0
"03/11/08","08:04:36",31904.000,"cc",28243.828,6.00,6,0.100,22359.000,0.200,3808.000,0.300,2298.000,0.500,2570.000,1.000,869.000,5.000,0
"03/11/08","08:04:42",31882.000,"cc",28374.645,6.00,6,0.100,22399.000,0.200,3764.000,0.300,2185.000,0.500,2579.000,1.000,955.000,5.000,0
"03/11/08","08:04:48",31710.000,"cc",28376.328,6.00,6,0.100,22124.000,0.200,3770.000,0.300,2289.000,0.500,2554.000,1.000,973.000,5.000,0
"03/11/08","08:04:54",31490.000,"cc",28304.941,6.00,6,0.100,21940.000,0.200,3720.000,0.300,2222.000,0.500,2624.000,1.000,984.000,5.000,0
"03/11/08","08:05:00",31430.000,"cc",28326.250,6.00,6,0.100,21971.000,0.200,3689.000,0.300,2102.000,0.500,2716.000,1.000,952.000,5.000,0
"03/11/08","08:05:06",31304.000,"cc",28257.047,6.00,6,0.100,21942.000,0.200,3700.000,0.300,2135.000,0.500,2565.000,1.000,962.000,5.000,0
"03/11/08","08:05:12",31443.000,"cc",28285.020,6.00,6,0.100,22038.000,0.200,3763.000,0.300,2135.000,0.500,2576.000,1.000,931.000,5.000,0
"03/11/08","08:05:18",31570.000,"cc",28321.121,6.00,6,0.100,22012.000,0.200,3753.000,0.300,2210.000,0.500,2640.000,1.000,955.000,5.000,0
"03/11/08","08:05:24",32017.000,"cc",28436.412,6.00,6,0.100,22056.000,0.200,3993.000,0.300,2257.000,0.500,2706.000,1.000,1004.000,5.000,1.000
"03/11/08","08:05:30",31782.000,"cc",28238.231,6.00,6,0.100,22243.000,0.200,3749.000,0.300,2245.000,0.500,2625.000,1.000,920.000,5.000,0
"03/11/08","08:05:36",31958.000,"cc",28310.928,6.00,6,0.100,22116.000,0.200,3833.000,0.300,2244.000,0.500,2808.000,1.000,957.000,5.000,0
"03/11/08","08:05:42",31374.000,"cc",28183.492,6.00,6,0.100,21963.000,0.200,3838.000,0.300,2153.000,0.500,2484.000,1.000,936.000,5.000,0
"03/11/08","08:05:48",32234.000,"cc",28320.371,6.00,6,0.100,22360.000,0.200,3857.000,0.300,2292.000,0.500,2750.000,1.000,975.000,5.000,0
"03/11/08","08:05:54",31490.000,"cc",28368.041,6.00,6,0.100,21955.000,0.200,3878.000,0.300,2186.000,0.500,2570.000,1.000,901.000,5.000,0
"03/11/08","08:06:00",31324.000,"cc",28285.943,6.00,6,0.100,21929.000,0.200,3783.000,0.300,2243.000,0.500,2466.000,1.000,903.000,5.000,0
"03/11/08","08:06:06",31563.000,"cc",28349.764,6.00,6,0.100,22016.000,0.200,3755.000,0.300,2177.000,0.500,2692.000,1.000,923.000,5.000,0
"03/11/08","08:06:12",31544.000,"cc",28342.221,6.00,6,0.100,22153.000,0.200,3696.000,0.300,2167.000,0.500,2638.000,1.000,890.000,5.000,0
"03/11/08","08:06:18",31292.000,"cc",28329.139,6.00,6,0.100,22000.000,0.200,3651.000,0.300,2210.000,0.500,2521.000,1.000,910.000,5.000,0
"03/11/08","08:06:24",31646.000,"cc",28315.135,6.00,6,0.100,21984.000,0.200,3787.000,0.300,2195.000,0.500,2701.000,1.000,979.000,5.000,0
"03/11/08","08:06:30",31906.000,"cc",28291.381,6.00,6,0.100,22195.000,0.200,3807.000,0.300,2280.000,0.500,2671.000,1.000,953.000,5.000,0
"03/11/08","08:06:36",32141.000,"cc",28351.549,6.00,6,0.100,22243.000,0.200,3879.000,0.300,2266.000,0.500,2768.000,1.000,985.000,5.000,0
"03/11/08","08:06:42",31510.000,"cc",28337.732,6.00,6,0.100,22008.000,0.200,3691.000,0.300,2210.000,0.500,2649.000,1.000,952.000,5.000,0
"03/11/08","08:06:48",31841.000,"cc",28232.914,6.00,6,0.100,22221.000,0.200,3720.000,0.300,2224.000,0.500,2722.000,1.000,954.000,5.000,0
"03/11/08","08:06:54",31924.000,"cc",28291.758,6.00,6,0.100,22240.000,0.200,3835.000,0.300,2236.000,0.500,2648.000,1.000,965.000,5.000,0
"03/11/08","08:07:00",31643.000,"cc",28336.422,6.00,6,0.100,22094.000,0.200,3705.000,0.300,2272.000,0.500,2625.000,1.000,947.000,5.000,0
"03/11/08","08:07:06",31578.000,"cc",28343.406,6.00,6,0.100,21999.000,0.200,3786.000,0.300,2218.000,0.500,2623.000,1.000,952.000,5.000,0
"03/11/08","08:07:12",31590.000,"cc",28316.268,6.00,6,0.100,22176.000,0.200,3751.000,0.300,2143.000,0.500,2576.000,1.000,944.000,5.000,0
"03/11/08","08:07:18",31798.000,"cc",28344.244,6.00,6,0.100,22382.000,0.200,3671.000,0.300,2253.000,0.500,2552.000,1.000,940.000,5.000,0
"03/11/08","08:07:24",31355.000,"cc",28347.197,6.00,6,0.100,21847.000,0.200,3725.000,0.300,2185.000,0.500,2677.000,1.000,921.000,5.000,0
"03/11/08","08:07:30",31200.000,"cc",28299.020,6.00,6,0.100,21806.000,0.200,3703.000,0.300,2108.000,0.500,2657.000,1.000,926.000,5.000,0
"03/11/08","08:07:36",31174.000,"cc",28312.223,6.00,6,0.100,21795.000,0.200,3602.000,0.300,2201.000,0.500,2605.000,1.000,971.000,5.000,0
"03/11/08","08:07:42",31636.000,"cc",28334.959,6.00,6,0.100,21863.000,0.200,3795.000,0.300,2263.000,0.500,2747.000,1.000,968.000,5.000,0
"03/11/08","08:07:48",31805.000,"cc",28294.008,6.00,6,0.100,22242.000,0.200,3669.000,0.300,2229.000,0.500,2718.000,1.000,947.000,5.000,0
"03/11/08","08:07:54",31627.000,"cc",28293.670,6.00,6,0.100,22390.000,0.200,3562.000,0.300,2135.000,0.500,2563.000,1.000,977.000,5.000,0
"03/11/08","08:08:00",31193.000,"cc",28395.205,6.00,6,0.100,21824.000,0.200,3684.000,0.300,2200.000,0.500,2553.000,1.000,931.000,5.000,1.000
"03/11/08","08:08:06",31688.000,"cc",28257.496,6.00,6,0.100,21967.000,0.200,3784.000,0.300,2250.000,0.500,2691.000,1.000,996.000,5.000,0
"03/11/08","08:08:12",31263.000,"cc",28345.436,6.00,6,0.100,21973.000,0.200,3593.000,0.300,2147.000,0.500,2599.000,1.000,951.000,5.000,0
"03/11/08","08:08:18",31111.000,"cc",28319.654,6.00,6,0.100,21808.000,0.200,3684.000,0.300,2130.000,0.500,2605.000,1.000,884.000,5.000,0
"03/11/08","08:08:24",31095.000,"cc",28333.584,6.00,6,0.100,21750.000,0.200,3625.000,0.300,2142.000,0.500,2600.000,1.000,978.000,5.000,0
"03/11/08","08:08:30",31128.000,"cc",28234.350,6.00,6,0.100,21874.000,0.200,3590.000,0.300,2074.000,0.500,2632.000,1.000,958.000,5.000,0
"03/11/08","08:08:36",31617.000,"cc",28373.910,6.00,6,0.100,22071.000,0.200,3748.000,0.300,2155.000,0.500,2637.000,1.000,1006.000,5.000,0
"03/11/08","08:08:42",31207.000,"cc",28319.176,6.00,6,0.100,21766.000,0.200,3645.000,0.300,2205.000,0.500,2621.000,1.000,970.000,5.000,0
"03/11/08","08:08:48",31570.000,"cc",28326.338,6.00,6,0.100,22022.000,0.200,3677.000,0.300,2247.000,0.500,2671.000,1.000,953.000,5.000,0
"03/11/08","08:08:54",31204.000,"cc",28284.775,6.00,6,0.100,21716.000,0.200,3792.000,0.300,2153.000,0.500,2599.000,1.000,944.000,5.000,0
"03/11/08","08:09:00",30895.000,"cc",28261.783,6.00,6,0.100,21571.000,0.200,3650.000,0.300,2172.000,0.500,2573.000,1.000,929.000,5.000,0
"03/11/08","08:09:06",30746.000,"cc",28289.238,6.00,6,0.100,21458.000,0.200,3695.000,0.300,2162.000,0.500,2523.000,1.000,908.000,5.000,0
"03/11/08","08:09:12",31211.000,"cc",28317.584,6.00,6,0.100,21764.000,0.200,3722.000,0.300,2127.000,0.500,2668.000,1.000,930.000,5.000,0
"03/11/08","08:09:18",31452.000,"cc",28361.236,6.00,6,0.100,22034.000,0.200,3734.000,0.300,2189.000,0.500,2609.000,1.000,886.000,5.000,0
"03/11/08","08:09:24",31501.000,"cc",28284.342,6.00,6,0.100,21869.000,0.200,3771.000,0.300,2114.000,0.500,2724.000,1.000,1023.000,5.000,0
"03/11/08","08:09:30",31209.000,"cc",28348.250,6.00,6,0.100,21783.000,0.200,3709.000,0.300,2178.000,0.500,2607.000,1.000,932.000,5.000,0
"03/11/08","08:09:36",31185.000,"cc",28358.414,6.00,6,0.100,21847.000,0.200,3633.000,0.300,2065.000,0.500,2665.000,1.000,975.000,5.000,0
"03/11/08","08:09:42",31594.000,"cc",28326.762,6.00,6,0.100,21985.000,0.200,3726.000,0.300,2185.000,0.500,2697.000,1.000,1001.000,5.000,0
"03/11/08","08:09:48",31067.000,"cc",28385.869,6.00,6,0.100,21645.000,0.200,3658.000,0.300,2181.000,0.500,2613.000,1.000,970.000,5.000,0
"03/11/08","08:09:54",31134.000,"cc",28306.211,6.00,6,0.100,21508.000,0.200,3803.000,0.300,2227.000,0.500,2649.000,1.000,947.000,5.000,0
"03/11/08","08:10:00",31787.000,"cc",28306.738,6.00,6,0.100,22037.000,0.200,3809.000,0.300,2205.000,0.500,2726.000,1.000,1010.000,5.000,0
"03/11/08","08:10:06",31940.000,"cc",28355.791,6.00,6,0.100,22120.000,0.200,3778.000,0.300,2257.000,0.500,2801.000,1.000,984.000,5.000,0
"03/11/08","08:10:12",31592.000,"cc",28345.385,6.00,6,0.100,21799.000,0.200,3752.000,0.300,2269.000,0.500,2742.000,1.000,1030.000,5.000,0
"03/11/08","08:10:18",31619.000,"cc",28179.148,6.00,6,0.100,21890.000,0.200,3676.000,0.300,2199.000,0.500,2796.000,1.000,1058.000,5.000,0
"03/11/08","08:10:24",31488.000,"cc",28283.613,6.00,6,0.100,21996.000,0.200,3663.000,0.300,2243.000,0.500,2640.000,1.000,946.000,5.000,0
"03/11/08","08:10:30",31375.000,"cc",28366.147,6.00,6,0.100,21919.000,0.200,3694.000,0.300,2227.000,0.500,2613.000,1.000,922.000,5.000,0
"03/11/08","08:10:36",31492.000,"cc",28296.250,6.00,6,0.100,21863.000,0.200,3814.000,0.300,2147.000,0.500,2678.000,1.000,990.000,5.000,0
"03/11/08","08:10:42",31106.000,"cc",28274.766,6.00,6,0.100,21734.000,0.200,3662.000,0.300,2178.000,0.500,2572.000,1.000,960.000,5.000,0
"03/11/08","08:10:48",31655.000,"cc",28359.375,6.00,6,0.100,21967.000,0.200,3755.000,0.300,2205.000,0.500,2723.000,1.000,1005.000,5.000,0
"03/11/08","08:10:54",30861.000,"cc",28341.961,6.00,6,0.100,21662.000,0.200,3585.000,0.300,2133.000,0.500,2546.000,1.000,935.000,5.000,0
"03/11/08","08:11:00",31629.000,"cc",28306.318,6.00,6,0.100,21979.000,0.200,3601.000,0.300,2332.000,0.500,2739.000,1.000,978.000,5.000,0
"03/11/08","08:11:06",31399.000,"cc",28286.033,6.00,6,0.100,21905.000,0.200,3670.000,0.300,2198.000,0.500,2647.000,1.000,979.000,5.000,0
"03/11/08","08:11:12",31494.000,"cc",28362.334,6.00,6,0.100,22044.000,0.200,3724.000,0.300,2177.000,0.500,2577.000,1.000,972.000,5.000,0
"03/11/08","08:11:18",31408.000,"cc",28272.656,6.00,6,0.100,21872.000,0.200,3693.000,0.300,2251.000,0.500,2666.000,1.000,926.000,5.000,0
"03/11/08","08:11:24",31279.000,"cc",28414.049,6.00,6,0.100,21964.000,0.200,3553.000,0.300,2185.000,0.500,2594.000,1.000,983.000,5.000,0
"03/11/08","08:11:30",31241.000,"cc",28260.584,6.00,6,0.100,21663.000,0.200,3649.000,0.300,2215.000,0.500,2704.000,1.000,1010.000,5.000,0
"03/11/08","08:11:36",31229.000,"cc",28274.223,6.00,6,0.100,21642.000,0.200,3690.000,0.300,2241.000,0.500,2668.000,1.000,988.000,5.000,0
"03/11/08","08:11:42",31596.000,"cc",28451.332,6.00,6,0.100,21985.000,0.200,3720.000,0.300,2279.000,0.500,2626.000,1.000,986.000,5.000,0
"03/11/08","08:11:48",31322.000,"cc",28269.490,6.00,6,0.100,21719.000,0.200,3729.000,0.300,2175.000,0.500,2672.000,1.000,1027.000,5.000,0
"03/11/08","08:11:54",31380.000,"cc",28380.377,6.00,6,0.100,21719.000,0.200,3711.000,0.300,2240.000,0.500,2697.000,1.000,1013.000,5.000,0
"03/11/08","08:12:00",31253.000,"cc",28222.940,6.00,6,0.100,21754.000,0.200,3686.000,0.300,2245.000,0.500,2701.000,1.000,867.000,5.000,0
"03/11/08","08:12:06",31281.000,"cc",28233.910,6.00,6,0.100,21864.000,0.200,3736.000,0.300,2167.000,0.500,2588.000,1.000,926.000,5.000,0
"03/11/08","08:12:12",31381.000,"cc",28393.207,6.00,6,0.100,21916.000,0.200,3678.000,0.300,2179.000,0.500,2621.000,1.000,987.000,5.000,0
"03/11/08","08:12:18",31253.000,"cc",28275.801,6.00,6,0.100,21565.000,0.200,3799.000,0.300,2233.000,0.500,2742.000,1.000,914.000,5.000,0
"03/11/08","08:12:24",31505.000,"cc",28297.588,6.00,6,0.100,21695.000,0.200,3729.000,0.300,2347.000,0.500,2712.000,1.000,1022.000,5.000,0
"03/11/08","08:12:30",31159.000,"cc",28323.445,6.00,6,0.100,21722.000,0.200,3698.000,0.300,2247.000,0.500,2586.000,1.000,906.000,5.000,0
"03/11/08","08:12:36",31097.000,"cc",28316.475,6.00,6,0.100,21629.000,0.200,3691.000,0.300,2227.000,0.500,2646.000,1.000,904.000,5.000,0
"03/11/08","08:12:42",31336.000,"cc",28328.211,6.00,6,0.100,21726.000,0.200,3841.000,0.300,2219.000,0.500,2560.000,1.000,990.000,5.000,0
"03/11/08","08:12:48",31399.000,"cc",28378.182,6.00,6,0.100,21697.000,0.200,3696.000,0.300,2283.000,0.500,2719.000,1.000,1004.000,5.000,0
"03/11/08","08:12:54",31042.000,"cc",28327.793,6.00,6,0.100,21566.000,0.200,3633.000,0.300,2239.000,0.500,2603.000,1.000,1001.000,5.000,0
"03/11/08","08:13:00",31768.000,"cc",28237.441,6.00,6,0.100,21850.000,0.200,3780.000,0.300,2331.000,0.500,2796.000,1.000,1011.000,5.000,0
"03/11/08","08:13:06",31493.000,"cc",28342.520,6.00,6,0.100,21878.000,0.200,3696.000,0.300,2211.000,0.500,2714.000,1.000,994.000,5.000,0
"03/11/08","08:13:12",31104.000,"cc",28383.334,6.00,6,0.100,21625.000,0.200,3679.000,0.300,2222.000,0.500,2620.000,1.000,958.000,5.000,0
"03/11/08","08:13:18",31029.000,"cc",28237.986,6.00,6,0.100,21412.000,0.200,3790.000,0.300,2148.000,0.500,2692.000,1.000,987.000,5.000,0
"03/11/08","08:13:24",30901.000,"cc",28380.078,6.00,6,0.100,21334.000,0.200,3721.000,0.300,2253.000,0.500,2650.000,1.000,943.000,5.000,0
"03/11/08","08:13:30",31090.000,"cc",28258.031,6.00,6,0.100,21640.000,0.200,3619.000,0.300,2226.000,0.500,2618.000,1.000,987.000,5.000,0
"03/11/08","08:13:36",31024.000,"cc",28337.018,6.00,6,0.100,21480.000,0.200,3649.000,0.300,2174.000,0.500,2675.000,1.000,1046.000,5.000,0
"03/11/08","08:13:42",31447.000,"cc",28323.844,6.00,6,0.100,21890.000,0.200,3661.000,0.300,2210.000,0.500,2657.000,1.000,1029.000,5.000,0
"03/11/08","08:13:48",31090.000,"cc",28293.389,6.00,6,0.100,21666.000,0.200,3715.000,0.300,2210.000,0.500,2577.000,1.000,922.000,5.000,0
"03/11/08","08:13:54",31152.000,"cc",28335.709,6.00,6,0.100,21678.000,0.200,3716.000,0.300,2193.000,0.500,2632.000,1.000,932.000,5.000,1.000
"03/11/08","08:14:00",31315.000,"cc",28281.010,6.00,6,0.100,21751.000,0.200,3695.000,0.300,2241.000,0.500,2597.000,1.000,1031.000,5.000,0
"03/11/08","08:14:06",30972.000,"cc",28348.119,6.00,6,0.100,21639.000,0.200,3571.000,0.300,2229.000,0.500,2600.000,1.000,933.000,5.000,0
"03/11/08","08:14:12",31491.000,"cc",28298.328,6.00,6,0.100,21856.000,0.200,3767.000,0.300,2226.000,0.500,2646.000,1.000,996.000,5.000,0
"03/11/08","08:14:18",30556.000,"cc",28292.006,6.00,6,0.100,21193.000,0.200,3611.000,0.300,2174.000,0.500,2621.000,1.000,957.000,5.000,0
"03/11/08","08:14:24",31211.000,"cc",28323.975,6.00,6,0.100,21603.000,0.200,3706.000,0.300,2201.000,0.500,2705.000,1.000,996.000,5.000,0
"03/11/08","08:14:30",31338.000,"cc",28240.650,6.00,6,0.100,21843.000,0.200,3639.000,0.300,2199.000,0.500,2671.000,1.000,986.000,5.000,0
"03/11/08","08:14:36",31580.000,"cc",28381.051,6.00,6,0.100,21902.000,0.200,3714.000,0.300,2256.000,0.500,2715.000,1.000,993.000,5.000,0
"03/11/08","08:14:42",31483.000,"cc",28311.742,6.00,6,0.100,21695.000,0.200,3730.000,0.300,2360.000,0.500,2731.000,1.000,967.000,5.000,0
"03/11/08","08:14:48",30952.000,"cc",28300.736,6.00,6,0.100,21395.000,0.200,3749.000,0.300,2182.000,0.500,2707.000,1.000,919.000,5.000,0
"03/11/08","08:14:54",31196.000,"cc",28322.563,6.00,6,0.100,21734.000,0.200,3650.000,0.300,2243.000,0.500,2593.000,1.000,976.000,5.000,0
"03/11/08","08:15:00",31441.000,"cc",28349.941,6.00,6,0.100,21788.000,0.200,3797.000,0.300,2172.000,0.500,2722.000,1.000,962.000,5.000,0
"03/11/08","08:15:06",31104.000,"cc",28358.412,6.00,6,0.100,21512.000,0.200,3594.000,0.300,2266.000,0.500,2704.000,1.000,1028.000,5.000,0
"03/11/08","08:15:12",30877.000,"cc",28311.902,6.00,6,0.100,21266.000,0.200,3624.000,0.300,2312.000,0.500,2643.000,1.000,1032.000,5.000,0
"03/11/08","08:15:18",30990.000,"cc",28238.227,6.00,6,0.100,21752.000,0.200,3578.000,0.300,2167.000,0.500,2583.000,1.000,910.000,5.000,0
"03/11/08","08:15:24",31077.000,"cc",28319.682,6.00,6,0.100,21531.000,0.200,3733.000,0.300,2194.000,0.500,2580.000,1.000,1039.000,5.000,0
"03/11/08","08:15:30",31437.000,"cc",28311.816,6.00,6,0.100,22078.000,0.200,3586.000,0.300,2200.000,0.500,2641.000,1.000,932.000,5.000,0
"03/11/08","08:15:36",31073.000,"cc",28285.033,6.00,6,0.100,21528.000,0.200,3716.000,0.300,2178.000,0.500,2638.000,1.000,1013.000,5.000,0
"03/11/08","08:15:42",30674.000,"cc",28307.506,6.00,6,0.100,21374.000,0.200,3573.000,0.300,2132.000,0.500,2635.000,1.000,960.000,5.000,0
"03/11/08","08:15:48",31262.000,"cc",28335.000,6.00,6,0.100,21726.000,0.200,3689.000,0.300,2186.000,0.500,2616.000,1.000,1045.000,5.000,0
"03/11/08","08:15:54",30893.000,"cc",28334.801,6.00,6,0.100,21330.000,0.200,3743.000,0.300,2210.000,0.500,2632.000,1.000,978.000,5.000,0
"03/11/08","08:16:00",30958.000,"cc",28365.102,6.00,6,0.100,21482.000,0.200,3662.000,0.300,2245.000,0.500,2603.000,1.000,966.000,5.000,0
"03/11/08","08:16:06",31137.000,"cc",28268.502,6.00,6,0.100,21634.000,0.200,3627.000,0.300,2209.000,0.500,2635.000,1.000,1032.000,5.000,0
"03/11/08","08:16:12",30937.000,"cc",28292.205,6.00,6,0.100,21497.000,0.200,3659.000,0.300,2161.000,0.500,2639.000,1.000,981.000,5.000,0
"03/11/08","08:16:18",31056.000,"cc",28315.869,6.00,6,0.100,21690.000,0.200,3600.000,0.300,2128.000,0.500,2677.000,1.000,961.000,5.000,0